Lid_Strength_Index
-1 -1 -1 -1 -1 -1 -1 -1 -1 -1 -1 -1 -1 -1 -1 -1 -1 -1 -1 -2 -2 -1 -1 -1 -1 -1 -2 -1 -1 -1 -1 -1 -1 -1 -1 -1 -1 -1 -1 -1 -1 -1 -1
-1 -1 -1 -1 -1 -1 -1 -1 -1 -1 -1 -1 -1 -1 -1 -1 -1 -1 -1 -1 -1 -2 -2 -1 -1 -1 -2 -2 -2 -1 -1 -0 -1 -1 -1 -1 -1 -1 -1 -1 -1 -1 -1
-1 -1 -1 -0 -1 -1 -1 -1 -1 -1 -0 -1 -0 -0 -1 -1 -1 -1 -1 -1 -2 -2 -2 -2 -1 -1 -1 -1 -2 -1 -1 -1 -1 -1 -1 -1 -1 -1 -1 -1 -1 -1 -1
-2 -1 -0 -1 -1 -2 -2 -0 -0 -0 0 -0 0 0 -0 -1 -1 -1 -1 -1 -1 -1 -2 -3 -2 -1 -1 -1 -1 -2 -1 -1 -1 -1 -1 -1 -1 -1 -1 -1 -1 -1 -1
-1 -1 -1 -1 -2 -1 -1 -0 0 0 1 1 1 0 -0 0 -1 -1 -1 -1 -1 -1 -1 -3 -2 -2 -1 -1 -1 -1 -1 -1 -1 -1 -1 -1 -1 -1 -1 -1 -1 -1 -1
-1 -1 -1 -1 -1 0 -0 -0 1 0 1 1 1 1 0 -0 -1 -1 -1 -1 -1 -2 -2 -2 -2 -2 -1 -2 -1 -1 -1 -1 -1 -1 -1 -1 -1 -1 -1 -1 -1 -1 -1
-1 -1 -1 1 1 1 1 0 1 1 1 0 2 1 1 -0 -0 -0 -1 -1 -1 -1 -2 -1 -1 -1 -2 -2 -2 -1 -1 -1 -1 -1 -1 -1 -1 -1 -1 -1 -1 -1 -1
-1 -1 -0 1 1 1 1 0 1 1 1 0 2 2 4 2 0 -1 -0 -0 -1 -1 -1 -1 -2 -2 -2 -2 -2 -2 -2 -1 -1 -1 -1 -1 -2 -2 -1 -1 -1 -1 -0
-1 -1 -1 -1 -0 1 1 0 0 1 2 1 0 2 4 4 3 0 -0 -0 -1 -0 -1 -1 -1 -2 -2 -2 -2 -2 -1 -1 -1 -1 -1 -1 -1 -1 -1 -1 -1 -1 -1
-1 -1 -1 -1 -1 -0 0 0 0 0 1 2 1 0 1 2 4 4 1 0 -0 -0 -1 -1 -1 -1 -2 -2 -2 -2 -1 -1 -1 -1 -1 -1 -1 -1 -1 -1 -1 -1 -1
-1 -0 -1 -0 -0 1 1 1 2 1 0 1 1 1 1 1 1 3 5 3 1 -0 -0 -1 -1 -1 -2 -2 -2 -2 -1 -1 -1 -1 -1 -1 -1 -1 -1 -1 -1 -1 -1
2 2 2 1 1 1 2 1 -0 -0 -0 0 0 1 1 2 2 3 4 3 3 1 1 0 1 1 0 -0 -1 -2 -1 -0 0 0 -1 -0 -0 -0 -0 -1 -1 -1 -1
1 1 0 0 0 0 0 -0 -0 -1 -0 1 0 2 2 2 2 2 3 4 4 2 2 1 1 1 1 1 1 0 0 1 1 1 1 1 2 2 1 0 0 -0 -1
1 1 1 1 1 0 -1 -1 0 0 0 1 1 1 1 2 2 2 3 4 5 4 3 1 1 1 1 1 1 1 1 1 2 2 2 2 3 2 2 1 1 -0 -0
2 2 1 1 1 1 1 0 0 0 1 1 1 0 1 2 2 2 3 3 4 6 5 3 3 -0 1 1 1 1 1 1 1 2 3 3 3 3 2 2 1 1 1
2 2 1 0 0 1 1 0 1 1 1 2 2 1 1 2 1 1 2 2 3 4 6 3 2 0 -0 0 0 0 1 1 2 2 2 3 3 3 3 2 2 1 0
1 1 1 -0 0 0 0 -0 0 1 1 0 0 1 1 1 2 2 2 2 2 3 4 4 3 2 1 2 2 1 1 1 1 1 1 2 3 3 3 2 2 2 2
0 -0 -1 -0 1 1 1 1 1 1 1 1 1 1 1 1 1 1 2 1 2 2 3 5 4 4 3 1 1 1 2 2 1 2 2 2 3 4 4 4 4 3 3
0 -0 0 1 2 1 1 1 1 1 1 2 1 1 1 1 1 2 2 2 3 3 3 5 6 4 3 3 2 2 2 1 1 1 2 3 4 4 4 4 4 5 4
0 0 1 2 2 2 1 1 2 2 2 1 1 1 1 2 2 2 3 3 3 4 5 5 5 5 4 3 3 4 4 3 3 2 2 3 3 3 4 4 3 3 4
2 2 2 2 2 2 4 4 3 3 2 2 1 2 1 2 3 4 5 5 5 6 6 6 6 5 5 4 5 4 5 4 4 3 3 3 2 2 1 3 2 2 3
2 2 3 3 3 3 8 8 7 4 3 2 2 2 2 2 3 5 5 6 7 7 7 6 6 6 5 5 4 5 6 6 7 4 3 3 3 2 1 1 3 5 4
3 3 3 3 3 5 9 9 9 5 3 2 2 3 4 4 5 6 6 6 5 6 5 5 5 6 6 5 5 6 6 6 7 5 5 4 3 3 1 1 5 5 5
4 4 4 4 4 7 9 10 10 4 3 2 3 4 6 5 6 8 7 5 4 3 3 4 5 6 6 6 7 6 6 6 5 5 4 6 3 3 2 0 3 4 5
4 4 4 4 4 6 10 10 9 5 4 4 4 6 6 7 10 11 8 6 5 4 5 7 8 8 9 9 8 7 7 7 7 6 3 4 3 3 1 1 0 5 6
4 4 4 4 7 7 10 10 10 7 7 7 6 5 9 9 11 12 8 7 7 7 7 7 7 6 7 6 6 5 6 7 7 7 3 3 3 3 3 1 2 1 2